Date,Time,atemp,precip,wspeed,wdir,
ADT,ADT,degC,.01/inch,mph,deg,
6/1/2003,21:00,3.8,0.0,0.5,197,begin pcp record
6/1/2003,22:00,3.9,0.0,0.1,40,
6/1/2003,23:00,2.9,0.0,0.5,207,
6/2/2003,0:00,2.2,0.0,0.4,218,
6/2/2003,1:00,1.8,0.0,1.0,150,
6/2/2003,2:00,1.6,0.0,0.2,113,
6/2/2003,3:00,1.8,0.0,0.3,108,
6/2/2003,4:00,1.7,0.0,0.1,100,
6/2/2003,5:00,1.9,0.0,1.1,146,
6/2/2003,6:00,1.4,0.0,1.3,143,
6/2/2003,7:00,1.5,0.0,0.9,149,
6/2/2003,8:00,,,,,
6/2/2003,9:00,,,,,
6/2/2003,10:00,,,,,
6/2/2003,11:00,,,,
6/2/2003,12:00,,,,
6/2/2003,13:00,,,,
6/2/2003,14:00,,,,
6/2/2003,15:00,1.2,0.0,2.1,54
6/2/2003,16:00,2.0,0.0,0.8,63
6/2/2003,17:00,2.6,0.0,1.2,34
6/2/2003,18:00,2.5,0.0,1.6,29
6/2/2003,19:00,2.5,0.0,1.9,56
6/2/2003,20:00,2.3,0.0,2.5,34
6/2/2003,21:00,1.5,0.0,2.4,41
6/2/2003,22:00,1.1,0.0,2.2,16
6/2/2003,23:00,0.6,0.0,1.6,31
6/3/2003,0:00,0.1,0.0,1.8,9
6/3/2003,1:00,-0.4,0.0,2.0,31
6/3/2003,2:00,-0.6,0.0,1.6,56
6/3/2003,3:00,-0.8,0.0,1.8,45
6/3/2003,4:00,-0.8,0.0,1.7,72
6/3/2003,5:00,-0.8,0.0,1.5,35
6/3/2003,6:00,-0.9,0.0,0.8,62
6/3/2003,7:00,-0.8,0.0,1.2,111
6/3/2003,8:00,-0.8,0.0,1.0,63
6/3/2003,9:00,-0.4,0.0,1.4,127
6/3/2003,10:00,0.1,0.0,1.3,97
6/3/2003,11:00,1.4,0.0,1.5,115
6/3/2003,12:00,2.1,0.0,1.3,72
6/3/2003,13:00,4.6,0.0,1.2,77
6/3/2003,14:00,7.6,0.0,1.5,222
6/3/2003,15:00,8.1,0.0,1.5,191
6/3/2003,16:00,8.4,0.0,1.6,195
6/3/2003,17:00,8.3,0.0,1.4,265
6/3/2003,18:00,8.6,0.0,1.0,279
6/3/2003,19:00,9.4,0.0,1.1,243
6/3/2003,20:00,7.0,0.0,1.5,315
6/3/2003,21:00,5.7,0.0,1.3,329
6/3/2003,22:00,4.9,0.0,1.1,360
6/3/2003,23:00,4.1,0.0,0.8,5
6/4/2003,0:00,3.8,0.0,0.4,1
6/4/2003,1:00,3.3,0.0,0.0,78
6/4/2003,2:00,2.7,0.0,1.2,178
6/4/2003,3:00,2.4,0.0,1.1,181
6/4/2003,4:00,2.9,0.0,2.1,209
6/4/2003,5:00,3.4,0.0,2.9,215
6/4/2003,6:00,3.2,0.00,1.8,205
6/4/2003,7:00,3.5,0.00,1.5,220
6/4/2003,8:00,4.3,0.00,1.8,226
6/4/2003,9:00,4.7,0.00,2.0,244
6/4/2003,10:00,3.9,0.00,2.2,250
6/4/2003,11:00,5.1,0.02,1.8,241
6/4/2003,12:00,6.7,0.02,2.4,231
6/4/2003,13:00,7.4,0.02,2.5,226
6/4/2003,14:00,8.8,0.02,3.0,235
6/4/2003,15:00,6.6,0.02,2.5,248
6/4/2003,16:00,7.3,0.02,2.9,233
6/4/2003,17:00,8.3,0.02,3.2,212
6/4/2003,18:00,8.9,0.02,2.6,241
6/4/2003,19:00,9.0,0.02,1.8,237
6/4/2003,20:00,9.3,0.02,1.3,266
6/4/2003,21:00,10.6,0.02,0.4,19
6/4/2003,22:00,10.1,0.02,0.7,101
6/4/2003,23:00,7.9,0.02,1.3,132
6/5/2003,0:00,6.0,0.02,1.6,165
6/5/2003,1:00,4.3,0.02,1.9,178
6/5/2003,2:00,3.2,0.02,1.8,161
6/5/2003,3:00,2.1,0.02,0.3,190
6/5/2003,4:00,1.9,0.02,1.1,149
6/5/2003,5:00,2.5,0.02,0.6,155
6/5/2003,6:00,4.3,0.02,1.1,157
6/5/2003,7:00,6.0,0.02,1.0,132
6/5/2003,8:00,7.6,0.02,1.3,158
6/5/2003,9:00,10.0,0.02,0.9,78
6/5/2003,10:00,9.4,0.02,1.7,79
6/5/2003,11:00,10.5,0.02,1.9,93
6/5/2003,12:00,11.5,0.02,2.1,87
6/5/2003,13:00,12.2,0.02,2.9,85
6/5/2003,14:00,13.0,0.02,2.3,92
6/5/2003,15:00,13.2,0.02,2.8,94
6/5/2003,16:00,13.6,0.02,3.4,70
6/5/2003,17:00,13.8,0.02,4.0,77
6/5/2003,18:00,13.5,0.02,4.7,61
6/5/2003,19:00,13.1,0.02,5.0,57
6/5/2003,20:00,12.4,0.02,4.0,63
6/5/2003,21:00,11.5,0.02,4.8,72
6/5/2003,22:00,10.3,0.02,3.2,70
6/5/2003,23:00,8.6,0.02,2.7,64
6/6/2003,0:00,7.1,0.02,3.2,70
6/6/2003,1:00,5.9,0.02,3.3,100
6/6/2003,2:00,4.9,0.02,2.9,91
6/6/2003,3:00,3.7,0.02,2.2,95
6/6/2003,4:00,2.6,0.02,1.2,58
6/6/2003,5:00,2.5,0.02,0.6,63
6/6/2003,6:00,2.9,0.02,2.5,40
6/6/2003,7:00,3.2,0.02,2.3,40
6/6/2003,8:00,3.9,0.02,3.0,30
6/6/2003,9:00,2.3,0.02,3.1,67
6/6/2003,10:00,3.2,0.02,3.3,69
6/6/2003,11:00,4.1,0.02,3.8,52
6/6/2003,12:00,4.6,0.02,4.9,35
6/6/2003,13:00,4.8,0.02,4.8,45
6/6/2003,14:00,6.1,0.02,5.0,51
6/6/2003,15:00,7.8,0.02,4.7,51
6/6/2003,16:00,9.1,0.02,4.4,54
6/6/2003,17:00,8.7,0.02,5.1,45
6/6/2003,18:00,8.3,0.02,4.8,49
6/6/2003,19:00,8.0,0.02,4.2,52
6/6/2003,20:00,7.9,0.02,4.7,42
6/6/2003,21:00,7.4,0.02,3.7,45
6/6/2003,22:00,6.1,0.02,3.7,37
6/6/2003,23:00,4.7,0.02,3.3,62
6/7/2003,0:00,1.1,0.02,3.7,33
6/7/2003,1:00,1.1,0.02,2.8,74
6/7/2003,2:00,1.2,0.02,2.7,65
6/7/2003,3:00,0.5,0.02,2.0,86
6/7/2003,4:00,0.2,0.02,2.1,66
6/7/2003,5:00,0.0,0.02,1.6,84
6/7/2003,6:00,-0.1,0.02,1.8,105
6/7/2003,7:00,-0.2,0.02,1.9,67
6/7/2003,8:00,0.3,0.02,1.6,96
6/7/2003,9:00,1.3,0.02,2.1,63
6/7/2003,10:00,2.0,0.02,2.2,22
6/7/2003,11:00,2.6,0.02,3.7,50
6/7/2003,12:00,3.3,0.02,3.1,63
6/7/2003,13:00,4.6,0.02,2.7,89
6/7/2003,14:00,5.2,0.02,3.7,67
6/7/2003,15:00,6.7,0.02,2.2,92
6/7/2003,16:00,7.8,0.02,2.9,74
6/7/2003,17:00,8.7,0.02,2.6,61
6/7/2003,18:00,9.6,0.02,2.2,85
6/7/2003,19:00,9.8,0.02,3.2,62
6/7/2003,20:00,9.4,0.02,3.2,56
6/7/2003,21:00,8.1,0.02,3.9,49
6/7/2003,22:00,7.3,0.02,2.8,56
6/7/2003,23:00,6.2,0.02,2.2,64
6/8/2003,0:00,5.2,0.02,2.4,87
6/8/2003,1:00,3.5,0.02,1.3,42
6/8/2003,2:00,2.4,0.02,1.4,68
6/8/2003,3:00,1.9,0.02,1.3,72
6/8/2003,4:00,1.2,0.02,1.3,65
6/8/2003,5:00,1.5,0.02,0.3,100
6/8/2003,6:00,3.0,0.02,0.0,183
6/8/2003,7:00,4.7,0.02,0.8,218
6/8/2003,8:00,6.8,0.02,3.4,275
6/8/2003,9:00,9.2,0.02,2.5,276
6/8/2003,10:00,11.3,0.02,2.3,277
6/8/2003,11:00,12.3,0.02,2.1,281
6/8/2003,12:00,13.4,0.02,2.2,260
6/8/2003,13:00,14.6,0.02,1.1,328
6/8/2003,14:00,16.3,0.02,2.0,262
6/8/2003,15:00,13.1,0.02,3.5,19
6/8/2003,16:00,14.8,0.02,2.2,33
6/8/2003,17:00,14.0,0.02,3.0,29
6/8/2003,18:00,13.8,0.02,3.0,12
6/8/2003,19:00,13.8,0.02,3.2,22
6/8/2003,20:00,13.9,0.02,2.8,18
6/8/2003,21:00,13.8,0.02,1.5,358
6/8/2003,22:00,13.1,0.02,2.2,136
6/8/2003,23:00,10.9,0.02,2.5,306
6/9/2003,0:00,10.1,0.02,1.1,350
6/9/2003,1:00,7.4,0.02,1.4,354
6/9/2003,2:00,4.9,0.02,1.8,335
6/9/2003,3:00,2.3,0.02,2.1,353
6/9/2003,4:00,1.5,0.02,1.8,360
6/9/2003,5:00,1.1,0.02,1.9,0
6/9/2003,6:00,0.7,0.02,1.2,349
6/9/2003,7:00,0.9,0.02,1.6,9
6/9/2003,8:00,1.3,0.02,1.2,17
6/9/2003,9:00,1.7,0.02,1.4,38
6/9/2003,10:00,2.4,0.02,1.1,35
6/9/2003,11:00,3.8,0.02,1.5,358
6/9/2003,12:00,5.7,0.02,2.3,51
6/9/2003,13:00,7.7,0.02,2.6,62
6/9/2003,14:00,8.5,0.02,4.2,54
6/9/2003,15:00,9.2,0.02,4.5,35
6/9/2003,16:00,10.3,0.02,4.1,43
6/9/2003,17:00,10.4,0.02,5.0,49
6/9/2003,18:00,10.3,0.02,3.8,58
6/9/2003,19:00,9.6,0.02,4.8,47
6/9/2003,20:00,8.9,0.02,5.1,47
6/9/2003,21:00,7.1,0.02,5.1,57
6/9/2003,22:00,5.2,0.02,3.7,66
6/9/2003,23:00,3.4,0.02,3.6,65
6/10/2003,0:00,0.7,0.02,4.9,54
6/10/2003,1:00,0.4,0.02,3.4,58
6/10/2003,2:00,0.7,0.02,3.3,64
6/10/2003,3:00,0.0,0.02,3.3,61
6/10/2003,4:00,-0.5,0.02,4.3,58
6/10/2003,5:00,-0.5,0.02,2.9,50
6/10/2003,6:00,-0.5,0.02,3.9,60
6/10/2003,7:00,-0.6,0.02,3.5,69
6/10/2003,8:00,-0.4,0.02,3.6,81
6/10/2003,9:00,0.0,0.02,4.2,79
6/10/2003,10:00,0.9,0.02,3.7,90
6/10/2003,11:00,2.0,0.02,4.0,81
6/10/2003,12:00,2.8,0.02,4.4,74
6/10/2003,13:00,2.9,0.02,5.1,63
6/10/2003,14:00,4.5,0.02,5.1,47
6/10/2003,15:00,4.9,0.02,6.4,64
6/10/2003,16:00,5.5,0.02,5.9,59
6/10/2003,17:00,5.0,0.02,6.1,68
6/10/2003,18:00,4.3,0.02,6.1,59
6/10/2003,19:00,5.5,0.02,6.3,79
6/10/2003,20:00,5.3,0.02,6.0,71
6/10/2003,21:00,4.9,0.02,6.5,69
6/10/2003,22:00,4.2,0.02,5.2,51
6/10/2003,23:00,2.9,0.02,5.6,75
6/11/2003,0:00,1.5,0.02,6.1,72
6/11/2003,1:00,0.5,0.02,6.2,69
6/11/2003,2:00,-0.2,0.02,6.0,66
6/11/2003,3:00,-0.8,0.02,6.5,57
6/11/2003,4:00,-0.8,0.02,4.9,65
6/11/2003,5:00,-1.1,0.02,4.5,70
6/11/2003,6:00,-0.8,0.02,5.0,95
6/11/2003,7:00,-0.7,0.02,4.7,82
6/11/2003,8:00,-0.6,0.02,5.1,68
6/11/2003,9:00,-0.1,0.02,4.7,65
6/11/2003,10:00,0.8,0.02,5.0,74
6/11/2003,11:00,1.2,0.02,5.3,61
6/11/2003,12:00,2.8,0.02,5.4,81
6/11/2003,13:00,3.5,0.02,5.3,61
6/11/2003,14:00,4.5,0.02,6.1,66
6/11/2003,15:00,5.2,0.02,5.1,65
6/11/2003,16:00,6.0,0.02,5.1,56
6/11/2003,17:00,5.9,0.02,6.7,64
6/11/2003,18:00,5.9,0.02,5.5,66
6/11/2003,19:00,5.5,0.02,6.0,53
6/11/2003,20:00,4.8,0.02,5.1,61
6/11/2003,21:00,3.4,0.02,6.3,74
6/11/2003,22:00,2.0,0.02,5.9,57
6/11/2003,23:00,1.0,0.02,5.1,88
6/12/2003,0:00,0.1,0.02,4.1,89
6/12/2003,1:00,-0.3,0.02,4.5,84
6/12/2003,2:00,-0.9,0.02,4.5,83
6/12/2003,3:00,-1.2,0.02,4.5,74
6/12/2003,4:00,-1.1,0.02,4.0,93
6/12/2003,5:00,-1.4,0.02,4.9,59
6/12/2003,6:00,-1.3,0.02,4.7,67
6/12/2003,7:00,-1.4,0.02,4.6,53
6/12/2003,8:00,,0.02,4.0,89
6/12/2003,9:00,-0.7,0.02,4.0,72
6/12/2003,10:00,-0.1,0.02,4.8,65
6/12/2003,11:00,0.5,0.02,4.2,76
6/12/2003,12:00,0.8,0.02,4.5,64
6/12/2003,13:00,1.8,0.02,4.3,86
6/12/2003,14:00,2.3,0.02,6.3,68
6/12/2003,15:00,3.0,0.02,6.1,72
6/12/2003,16:00,3.4,0.02,6.0,67
6/12/2003,17:00,3.8,0.02,5.3,87
6/12/2003,18:00,3.8,0.02,6.3,63
6/12/2003,19:00,3.9,0.02,5.9,67
6/12/2003,20:00,3.6,0.02,6.1,49
6/12/2003,21:00,2.6,0.02,5.2,70
6/12/2003,22:00,1.5,0.02,5.0,64
6/12/2003,23:00,0.8,0.02,4.3,76
6/13/2003,0:00,-0.4,0.02,5.6,81
6/13/2003,1:00,-0.6,0.02,4.4,77
6/13/2003,2:00,-1.2,0.02,4.4,85
6/13/2003,3:00,-1.5,0.02,3.5,71
6/13/2003,4:00,-1.6,0.02,4.4,77
6/13/2003,5:00,-1.8,0.02,5.2,64
6/13/2003,6:00,-1.8,0.02,3.8,66
6/13/2003,7:00,-1.3,0.02,4.6,60
6/13/2003,8:00,-1.2,0.02,5.0,79
6/13/2003,9:00,-0.8,0.02,4.4,86
6/13/2003,10:00,0.4,0.02,4.1,74
6/13/2003,11:00,1.8,0.02,5.5,84
6/13/2003,12:00,3.5,0.02,4.4,77
6/13/2003,13:00,4.4,0.02,5.2,69
6/13/2003,14:00,5.6,0.02,5.1,67
6/13/2003,15:00,6.7,0.02,5.7,84
6/13/2003,16:00,6.8,0.02,5.4,56
6/13/2003,17:00,7.2,0.02,5.3,67
6/13/2003,18:00,6.6,0.02,6.9,77
6/13/2003,19:00,6.1,0.02,6.2,70
6/13/2003,20:00,5.3,0.02,5.8,56
6/13/2003,21:00,4.2,0.02,5.9,66
6/13/2003,22:00,3.1,0.02,5.6,52
6/13/2003,23:00,2.0,0.02,5.2,65
6/14/2003,0:00,0.4,0.02,5.1,71
6/14/2003,1:00,-0.7,0.02,3.9,97
6/14/2003,2:00,-1.3,0.02,5.0,69
6/14/2003,3:00,-1.5,0.02,4.2,100
6/14/2003,4:00,-1.6,0.02,4.5,64
6/14/2003,5:00,-1.6,0.02,3.7,83
6/14/2003,6:00,-2.1,0.02,3.7,76
6/14/2003,7:00,-1.7,0.02,2.9,84
6/14/2003,8:00,-1.5,0.02,3.3,70
6/14/2003,9:00,-1.2,0.02,3.9,53
6/14/2003,10:00,-0.8,0.02,3.9,66
6/14/2003,11:00,0.8,0.02,3.2,91
6/14/2003,12:00,1.0,0.02,3.9,66
6/14/2003,13:00,2.0,0.02,3.8,104
6/14/2003,14:00,2.4,0.02,3.4,74
6/14/2003,15:00,3.1,0.02,3.4,59
6/14/2003,16:00,3.8,0.02,4.7,45
6/14/2003,17:00,4.1,0.02,3.8,77
6/14/2003,18:00,4.6,0.02,4.1,65
6/14/2003,19:00,4.7,0.02,5.0,76
6/14/2003,20:00,5.0,0.02,4.8,60
6/14/2003,21:00,4.5,0.02,5.1,44
6/14/2003,22:00,3.5,0.02,4.8,63
6/14/2003,23:00,1.9,0.02,3.9,38
6/15/2003,0:00,1.0,0.02,4.0,53
6/15/2003,1:00,1.1,0.02,3.6,76
6/15/2003,2:00,0.8,0.02,3.1,62
6/15/2003,3:00,0.3,0.03,2.7,58
6/15/2003,4:00,0.3,0.03,2.9,46
6/15/2003,5:00,0.2,0.03,2.3,55
6/15/2003,6:00,0.1,0.03,2.8,75
6/15/2003,7:00,0.3,0.03,2.3,87
6/15/2003,8:00,0.5,0.03,2.4,56
6/15/2003,9:00,0.8,0.03,3.0,50
6/15/2003,10:00,0.6,0.03,3.3,52
6/15/2003,11:00,1.6,0.03,2.9,39
6/15/2003,12:00,3.1,0.03,2.5,72
6/15/2003,13:00,3.4,0.03,3.0,50
6/15/2003,14:00,4.4,0.03,3.2,38
6/15/2003,15:00,5.0,0.03,2.6,74
6/15/2003,16:00,6.0,0.03,3.2,63
6/15/2003,17:00,7.0,0.03,2.7,57
6/15/2003,18:00,7.1,0.03,3.4,63
6/15/2003,19:00,7.0,0.03,4.4,68
6/15/2003,20:00,6.4,0.03,5.0,50
6/15/2003,21:00,5.7,0.03,4.3,53
6/15/2003,22:00,4.7,0.03,4.2,36
6/15/2003,23:00,4.0,0.03,3.2,19
6/16/2003,0:00,2.5,0.03,3.3,66
6/16/2003,1:00,2.0,0.03,3.0,64
6/16/2003,2:00,1.5,0.03,3.5,62
6/16/2003,3:00,1.5,0.03,2.9,66
6/16/2003,4:00,1.3,0.03,2.4,85
6/16/2003,5:00,1.1,0.03,2.3,64
6/16/2003,6:00,0.6,0.03,2.9,69
6/16/2003,7:00,0.7,0.03,1.8,107
6/16/2003,8:00,1.4,0.03,1.5,58
6/16/2003,9:00,2.1,0.03,2.2,80
6/16/2003,10:00,4.2,0.03,2.7,74
6/16/2003,11:00,5.7,0.03,2.2,96
6/16/2003,12:00,7.1,0.03,2.2,80
6/16/2003,13:00,7.5,0.03,2.8,78
6/16/2003,14:00,8.9,0.03,2.5,93
6/16/2003,15:00,10.5,0.03,3.1,84
6/16/2003,16:00,10.8,0.03,3.9,79
6/16/2003,17:00,11.5,0.03,3.3,83
6/16/2003,18:00,11.2,0.03,4.2,53
6/16/2003,19:00,11.2,0.03,5.0,47
6/16/2003,20:00,11.3,0.03,4.1,63
6/16/2003,21:00,10.8,0.03,3.1,60
6/16/2003,22:00,9.6,0.03,3.4,41
6/16/2003,23:00,8.3,0.03,3.1,77
6/17/2003,0:00,6.6,0.03,2.6,50
6/17/2003,1:00,5.5,0.03,3.5,70
6/17/2003,2:00,4.6,0.03,2.9,62
6/17/2003,3:00,3.8,0.03,2.9,55
6/17/2003,4:00,3.0,0.03,2.9,71
6/17/2003,5:00,2.7,0.03,2.8,73
6/17/2003,6:00,3.3,0.03,2.6,70
6/17/2003,7:00,2.8,0.03,3.2,81
6/17/2003,8:00,4.0,0.03,3.5,95
6/17/2003,9:00,4.5,0.03,3.7,77
6/17/2003,10:00,6.8,0.03,3.6,71
6/17/2003,11:00,8.2,0.03,4.3,88
6/17/2003,12:00,8.7,0.03,4.5,78
6/17/2003,13:00,9.6,0.03,4.3,68
6/17/2003,14:00,10.1,0.03,3.8,90
6/17/2003,15:00,10.2,0.03,5.0,56
6/17/2003,16:00,10.3,0.03,6.5,33
6/17/2003,17:00,10.0,0.03,7.1,46
6/17/2003,18:00,9.4,0.03,6.7,62
6/17/2003,19:00,8.4,0.03,6.5,46
6/17/2003,20:00,7.3,0.03,7.3,50
6/17/2003,21:00,5.6,0.03,6.7,44
6/17/2003,22:00,3.1,0.03,5.5,35
6/17/2003,23:00,2.0,0.03,3.5,73
6/18/2003,0:00,0.6,0.03,4.4,49
6/18/2003,1:00,0.0,0.03,3.9,70
6/18/2003,2:00,-0.5,0.03,5.0,44
6/18/2003,3:00,-0.8,0.03,3.3,68
6/18/2003,4:00,-1.3,0.03,4.0,41
6/18/2003,5:00,-1.2,0.03,3.5,68
6/18/2003,6:00,-2.0,0.03,3.9,48
6/18/2003,7:00,-1.5,0.03,3.4,56
6/18/2003,8:00,,0.03,2.9,29
6/18/2003,9:00,0.4,0.03,3.5,10
6/18/2003,10:00,2.1,0.03,3.4,75
6/18/2003,11:00,3.1,0.03,3.1,67
6/18/2003,12:00,4.8,0.03,4.2,53
6/18/2003,13:00,6.3,0.03,5.4,51
6/18/2003,14:00,7.1,0.03,5.3,46
6/18/2003,15:00,7.6,0.03,6.8,39
6/18/2003,16:00,7.9,0.03,6.2,51
6/18/2003,17:00,7.4,0.03,6.4,57
6/18/2003,18:00,6.8,0.03,6.7,37
6/18/2003,19:00,6.5,0.03,6.8,32
6/18/2003,20:00,6.4,0.03,5.4,47
6/18/2003,21:00,5.2,0.03,5.7,56
6/18/2003,22:00,4.1,0.03,6.0,52
6/18/2003,23:00,1.4,0.03,6.9,59
6/19/2003,0:00,-0.2,0.03,6.7,54
6/19/2003,1:00,-0.1,0.03,3.9,57
6/19/2003,2:00,-0.5,0.03,3.2,60
6/19/2003,3:00,-1.1,0.03,4.6,66
6/19/2003,4:00,,0.03,4.5,47
6/19/2003,5:00,-1.3,0.03,3.5,68
6/19/2003,6:00,-1.4,0.03,4.0,50
6/19/2003,7:00,-1.1,0.03,3.1,78
6/19/2003,8:00,-0.5,0.03,3.5,44
6/19/2003,9:00,1.3,0.03,3.1,35
6/19/2003,10:00,3.4,0.03,3.8,60
6/19/2003,11:00,4.7,0.03,4.9,53
6/19/2003,12:00,6.1,0.03,5.2,64
6/19/2003,13:00,7.1,0.03,5.0,68
6/19/2003,14:00,8.1,0.03,4.5,64
6/19/2003,15:00,8.3,0.03,6.8,52
6/19/2003,16:00,8.2,0.03,6.5,55
6/19/2003,17:00,8.6,0.03,5.5,44
6/19/2003,18:00,8.0,0.03,6.1,63
6/19/2003,19:00,7.9,0.03,6.1,67
6/19/2003,20:00,7.8,0.03,6.2,55
6/19/2003,21:00,7.1,0.03,6.8,66
6/19/2003,22:00,6.9,0.03,5.9,73
6/19/2003,23:00,5.4,0.03,5.4,50
6/20/2003,0:00,4.0,0.03,4.7,56
6/20/2003,1:00,3.2,0.03,3.9,66
6/20/2003,2:00,1.7,0.03,4.0,57
6/20/2003,3:00,0.8,0.03,4.5,71
6/20/2003,4:00,0.6,0.03,4.5,70
6/20/2003,5:00,0.4,0.03,3.5,51
6/20/2003,6:00,0.9,0.03,2.8,58
6/20/2003,7:00,0.8,0.03,4.8,62
6/20/2003,8:00,1.4,0.03,3.6,86
6/20/2003,9:00,2.4,0.03,4.0,37
6/20/2003,10:00,4.3,0.03,3.9,61
6/20/2003,11:00,6.1,0.03,3.4,101
6/20/2003,12:00,7.7,0.03,2.8,76
6/20/2003,13:00,9.5,0.03,2.5,90
6/20/2003,14:00,11.3,0.03,3.1,96
6/20/2003,15:00,12.2,0.03,3.0,100
6/20/2003,16:00,13.4,0.03,3.4,92
6/20/2003,17:00,13.8,0.03,3.7,80
6/20/2003,18:00,14.6,0.03,2.9,97
6/20/2003,19:00,14.5,0.03,4.9,80
6/20/2003,20:00,13.7,0.03,4.9,64
6/20/2003,21:00,12.6,0.03,5.4,53
6/20/2003,22:00,10.3,0.03,5.2,53
6/20/2003,23:00,8.4,0.03,4.1,44
6/21/2003,0:00,6.9,0.03,3.4,60
6/21/2003,1:00,5.3,0.03,2.8,47
6/21/2003,2:00,3.6,0.03,1.4,25
6/21/2003,3:00,2.7,0.03,1.9,24
6/21/2003,4:00,2.0,0.03,1.5,41
6/21/2003,5:00,2.0,0.03,2.1,47
6/21/2003,6:00,2.9,0.03,2.5,51
6/21/2003,7:00,4.8,0.03,1.6,67
6/21/2003,8:00,6.1,0.03,1.7,58
6/21/2003,9:00,8.2,0.03,1.8,42
6/21/2003,10:00,10.1,0.03,2.3,69
6/21/2003,11:00,11.9,0.03,1.8,79
6/21/2003,12:00,12.1,0.03,2.6,50
6/21/2003,13:00,13.1,0.03,2.7,50
6/21/2003,14:00,13.3,0.03,2.1,96
6/21/2003,15:00,14.3,0.03,1.9,1
6/21/2003,16:00,14.7,0.03,2.6,46
6/21/2003,17:00,15.2,0.03,2.1,45
6/21/2003,18:00,15.3,0.03,2.1,51
6/21/2003,19:00,15.3,0.03,3.3,51
6/21/2003,20:00,14.8,0.03,3.5,54
6/21/2003,21:00,14.7,0.03,3.5,44
6/21/2003,22:00,13.6,0.03,3.0,42
6/21/2003,23:00,12.0,0.03,1.9,46
6/22/2003,0:00,11.0,0.03,1.6,26
6/22/2003,1:00,8.4,0.03,2.0,6
6/22/2003,2:00,6.9,0.03,1.2,3
6/22/2003,3:00,5.3,0.03,0.7,353
6/22/2003,4:00,4.4,0.03,0.3,257
6/22/2003,5:00,7.1,0.03,0.0,47
6/22/2003,6:00,8.5,0.03,0.4,175
6/22/2003,7:00,9.6,0.03,0.7,191
6/22/2003,8:00,12.0,0.03,0.9,214
6/22/2003,9:00,13.8,0.03,1.1,237
6/22/2003,10:00,14.6,0.03,1.1,334
6/22/2003,11:00,16.0,0.03,1.7,282
6/22/2003,12:00,15.8,0.03,1.5,314
6/22/2003,13:00,15.2,0.03,2.3,336
6/22/2003,14:00,15.4,0.03,2.3,344
6/22/2003,15:00,16.1,0.03,2.7,332
6/22/2003,16:00,16.3,0.03,2.7,352
6/22/2003,17:00,16.5,0.03,2.7,336
6/22/2003,18:00,16.2,0.03,3.2,20
6/22/2003,19:00,16.1,0.03,3.1,5
6/22/2003,20:00,15.8,0.03,3.2,40
6/22/2003,21:00,15.5,0.03,3.0,21
6/22/2003,22:00,14.3,0.03,3.4,25
6/22/2003,23:00,13.0,0.03,2.7,41
6/23/2003,0:00,10.0,0.03,2.3,32
6/23/2003,1:00,9.2,0.03,2.0,56
6/23/2003,2:00,7.8,0.03,1.7,66
6/23/2003,3:00,6.8,0.03,2.2,51
6/23/2003,4:00,6.3,0.03,0.9,11
6/23/2003,5:00,7.0,0.03,1.4,66
6/23/2003,6:00,8.1,0.03,1.5,72
6/23/2003,7:00,9.1,0.03,2.2,71
6/23/2003,8:00,10.5,0.03,2.3,72
6/23/2003,9:00,11.7,0.03,2.3,93
6/23/2003,10:00,12.8,0.03,2.5,87
6/23/2003,11:00,13.6,0.03,2.1,101
6/23/2003,12:00,15.0,0.03,1.8,88
6/23/2003,13:00,15.2,0.03,2.5,80
6/23/2003,14:00,16.2,0.03,2.3,41
6/23/2003,15:00,17.3,0.03,2.4,106
6/23/2003,16:00,17.2,0.03,3.5,86
6/23/2003,17:00,17.4,0.03,3.2,48
6/23/2003,18:00,17.5,0.03,4.8,45
6/23/2003,19:00,17.5,0.03,4.1,70
6/23/2003,20:00,17.0,0.03,5.1,67
6/23/2003,21:00,15.7,0.03,5.1,71
6/23/2003,22:00,14.5,0.03,4.9,59
6/23/2003,23:00,13.1,0.03,4.0,73
6/24/2003,0:00,11.5,0.03,3.2,65
6/24/2003,1:00,9.1,0.03,2.8,63
6/24/2003,2:00,6.9,0.03,2.6,56
6/24/2003,3:00,5.7,0.03,1.8,67
6/24/2003,4:00,5.2,0.03,2.1,69
6/24/2003,5:00,5.5,0.03,2.2,84
6/24/2003,6:00,5.6,0.03,1.9,66
6/24/2003,7:00,5.6,0.03,2.8,75
6/24/2003,8:00,5.4,0.03,3.0,67
6/24/2003,9:00,5.6,0.03,3.5,58
6/24/2003,10:00,5.9,0.03,3.4,53
6/24/2003,11:00,7.8,0.03,2.5,73
6/24/2003,12:00,9.8,0.03,2.6,90
6/24/2003,13:00,11.5,0.03,3.3,89
6/24/2003,14:00,13.4,0.03,4.1,68
6/24/2003,15:00,14.5,0.03,3.9,58
6/24/2003,16:00,15.9,0.03,3.6,64
6/24/2003,17:00,16.6,0.03,4.8,49
6/24/2003,18:00,16.3,0.03,4.6,49
6/24/2003,19:00,16.2,0.03,4.7,51
6/24/2003,20:00,15.6,0.03,5.0,43
6/24/2003,21:00,14.4,0.03,5.3,41
6/24/2003,22:00,13.0,0.03,4.1,56
6/24/2003,23:00,11.1,0.03,3.7,44
6/25/2003,0:00,9.9,0.03,2.6,75
6/25/2003,1:00,8.5,0.03,2.1,72
6/25/2003,2:00,7.0,0.03,2.6,30
6/25/2003,3:00,6.4,0.03,2.1,73
6/25/2003,4:00,5.7,0.03,1.8,54
6/25/2003,5:00,6.3,0.03,2.0,82
6/25/2003,6:00,6.7,0.03,1.7,101
6/25/2003,7:00,8.3,0.03,1.3,70
6/25/2003,8:00,9.9,0.03,1.3,70
6/25/2003,9:00,10.6,0.03,1.6,72
6/25/2003,10:00,14.1,0.03,1.0,71
6/25/2003,11:00,15.5,0.03,1.8,45
6/25/2003,12:00,18.9,0.03,1.1,31
6/25/2003,13:00,20.8,0.03,1.8,356
6/25/2003,14:00,21.1,0.03,1.5,6
6/25/2003,15:00,22.0,0.03,2.3,44
6/25/2003,16:00,22.4,0.03,3.0,19
6/25/2003,17:00,23.1,0.03,3.5,22
6/25/2003,18:00,23.4,0.03,3.6,17
6/25/2003,19:00,14.8,0.27,2.4,249
6/25/2003,20:00,16.0,0.28,1.9,311
6/25/2003,21:00,16.9,0.28,2.8,37
6/25/2003,22:00,16.8,0.28,1.3,72
6/25/2003,23:00,16.4,0.28,0.8,130
6/26/2003,0:00,15.1,0.28,1.2,153
6/26/2003,1:00,14.0,0.28,2.5,213
6/26/2003,2:00,13.0,0.28,1.6,226
6/26/2003,3:00,12.8,0.28,1.2,224
6/26/2003,4:00,12.9,0.28,1.1,331
6/26/2003,5:00,12.9,0.28,0.9,359
6/26/2003,6:00,12.7,0.28,1.2,341
6/26/2003,7:00,13.0,0.28,1.0,255
6/26/2003,8:00,12.8,0.28,1.9,229
6/26/2003,9:00,12.7,0.28,1.9,248
6/26/2003,10:00,12.9,0.30,2.2,294
6/26/2003,11:00,14.3,0.30,1.6,330
6/26/2003,12:00,14.3,0.30,2.2,253
6/26/2003,13:00,14.9,0.30,1.3,284
6/26/2003,14:00,14.6,0.30,1.6,309
6/26/2003,15:00,15.8,0.30,2.8,348
6/26/2003,16:00,16.3,0.30,2.3,360
6/26/2003,17:00,17.1,0.30,2.3,359
6/26/2003,18:00,17.3,0.30,1.9,352
6/26/2003,19:00,17.7,0.30,1.7,329
6/26/2003,20:00,17.1,0.30,2.7,345
6/26/2003,21:00,15.9,0.30,2.7,4
6/26/2003,22:00,13.9,0.30,2.5,7
6/26/2003,23:00,12.7,0.30,1.8,4
6/27/2003,0:00,11.6,0.30,2.0,359
6/27/2003,1:00,8.9,0.30,3.0,24
6/27/2003,2:00,7.3,0.30,1.4,39
6/27/2003,3:00,5.7,0.30,2.1,24
6/27/2003,4:00,5.8,0.30,1.0,25
6/27/2003,5:00,5.7,0.30,1.6,28
6/27/2003,6:00,5.5,0.30,1.7,36
6/27/2003,7:00,5.8,0.30,1.3,10
6/27/2003,8:00,6.9,0.30,1.6,360
6/27/2003,9:00,5.7,0.30,2.3,14
6/27/2003,10:00,6.1,0.30,1.6,5
6/27/2003,11:00,7.0,0.30,0.8,13
6/27/2003,12:00,7.7,0.30,1.8,29
6/27/2003,13:00,9.5,0.30,2.3,19
6/27/2003,14:00,10.7,0.30,2.0,37
6/27/2003,15:00,11.1,0.30,2.7,40
6/27/2003,16:00,12.7,0.30,3.0,25
6/27/2003,17:00,14.0,0.30,3.0,66
6/27/2003,18:00,14.7,0.30,3.0,28
6/27/2003,19:00,14.6,0.30,3.6,33
6/27/2003,20:00,14.2,0.30,3.6,31
6/27/2003,21:00,12.7,0.30,4.9,42
6/27/2003,22:00,11.6,0.30,3.5,40
6/27/2003,23:00,10.2,0.30,3.4,49
6/28/2003,0:00,8.7,0.30,3.0,58
6/28/2003,1:00,6.9,0.30,2.6,25
6/28/2003,2:00,5.8,0.30,2.5,63
6/28/2003,3:00,5.0,0.30,2.0,71
6/28/2003,4:00,4.5,0.30,1.9,77
6/28/2003,5:00,4.7,0.30,1.6,34
6/28/2003,6:00,5.5,0.30,2.0,43
6/28/2003,7:00,6.6,0.30,2.0,47
6/28/2003,8:00,6.4,0.30,3.1,38
6/28/2003,9:00,7.3,0.30,2.1,64
6/28/2003,10:00,9.0,0.30,2.1,58
6/28/2003,11:00,11.2,0.30,2.0,71
6/28/2003,12:00,14.0,0.30,1.3,78
6/28/2003,13:00,15.8,0.30,1.3,98
6/28/2003,14:00,17.5,0.30,1.3,91
6/28/2003,15:00,18.4,0.30,2.2,64
6/28/2003,16:00,19.7,0.30,1.5,75
6/28/2003,17:00,20.4,0.30,1.5,115
6/28/2003,18:00,19.5,0.30,2.3,67
6/28/2003,19:00,20.2,0.30,2.0,136
6/28/2003,20:00,20.5,0.30,2.4,118
6/28/2003,21:00,20.4,0.30,2.0,135
6/28/2003,22:00,20.2,0.30,1.5,98
6/28/2003,23:00,18.6,0.30,2.0,124
6/29/2003,0:00,16.4,0.30,2.2,69
6/29/2003,1:00,14.3,0.30,2.2,76
6/29/2003,2:00,12.6,0.30,0.8,43
6/29/2003,3:00,12.3,0.30,1.4,77
6/29/2003,4:00,11.5,0.30,1.0,39
6/29/2003,5:00,12.0,0.30,1.6,86
6/29/2003,6:00,12.7,0.30,1.4,76
6/29/2003,7:00,14.4,0.30,1.6,79
6/29/2003,8:00,16.5,0.30,1.8,136
6/29/2003,9:00,18.4,0.30,2.3,128
6/29/2003,10:00,20.5,0.30,1.8,88
6/29/2003,11:00,22.6,0.30,1.9,134
6/29/2003,12:00,24.6,0.30,3.3,171
6/29/2003,13:00,25.4,0.30,2.7,138
6/29/2003,14:00,24.3,0.30,3.0,163
6/29/2003,15:00,25.2,0.30,4.0,154
6/29/2003,16:00,24.1,0.30,3.9,177
6/29/2003,17:00,24.0,0.30,3.8,187
6/29/2003,18:00,20.5,0.30,3.8,266
6/29/2003,19:00,17.9,0.30,4.8,254
6/29/2003,20:00,15.6,0.30,2.5,242
6/29/2003,21:00,13.6,0.44,1.9,320
6/29/2003,22:00,13.7,0.44,0.6,337
6/29/2003,23:00,13.6,0.44,0.7,149
6/30/2003,0:00,13.0,0.44,0.5,196
6/30/2003,1:00,12.8,0.45,0.6,178
6/30/2003,2:00,12.5,0.45,1.2,157
6/30/2003,3:00,11.8,0.45,1.3,200
6/30/2003,4:00,11.2,0.45,1.7,214
6/30/2003,5:00,10.6,0.45,1.7,223
6/30/2003,6:00,11.1,0.45,1.2,234
6/30/2003,7:00,12.6,0.45,1.6,237
6/30/2003,8:00,13.9,0.45,1.3,244
6/30/2003,9:00,16.2,0.45,1.4,205
6/30/2003,10:00,15.6,0.45,2.0,228
6/30/2003,11:00,15.4,0.45,2.6,255
6/30/2003,12:00,16.3,0.45,1.8,266
6/30/2003,13:00,16.8,0.45,0.6,289
6/30/2003,14:00,19.0,0.46,1.2,238
6/30/2003,15:00,19.4,0.46,0.6,174
6/30/2003,16:00,17.7,0.46,0.8,210
6/30/2003,17:00,17.7,0.46,1.9,354
6/30/2003,18:00,18.7,0.46,1.3,179
6/30/2003,19:00,18.7,0.45,0.3,269
6/30/2003,20:00,18.0,0.46,1.0,274
6/30/2003,21:00,17.2,0.46,0.9,306
6/30/2003,22:00,15.8,0.46,1.8,67
6/30/2003,23:00,13.9,0.46,0.8,59
7/1/2003,0:00,13.7,0.46,0.4,325
7/1/2003,1:00,13.8,0.48,0.8,58
7/1/2003,2:00,12.8,0.49,1.3,78
7/1/2003,3:00,12.6,0.50,3.8,63
7/1/2003,4:00,12.5,0.50,3.0,67
7/1/2003,5:00,12.5,0.50,2.4,76
7/1/2003,6:00,12.3,0.50,3.6,69
7/1/2003,7:00,12.6,0.50,2.1,90
7/1/2003,8:00,13.5,0.50,2.3,82
7/1/2003,9:00,15.5,0.50,2.1,98
7/1/2003,10:00,16.9,0.50,2.6,132
7/1/2003,11:00,17.4,0.50,2.3,126
7/1/2003,12:00,16.8,0.50,2.2,143
7/1/2003,13:00,16.2,0.51,1.9,134
7/1/2003,14:00,16.0,0.54,2.4,150
7/1/2003,15:00,16.2,0.55,2.9,123
7/1/2003,16:00,15.5,0.59,2.5,122
7/1/2003,17:00,15.6,0.59,2.4,198
7/1/2003,18:00,15.3,0.62,1.8,242
7/1/2003,19:00,16.5,0.62,2.8,209
7/1/2003,20:00,16.0,0.63,3.3,217
7/1/2003,21:00,15.7,0.63,3.6,225
7/1/2003,22:00,15.8,0.63,4.6,240
7/1/2003,23:00,13.5,0.63,2.8,282
7/2/2003,0:00,12.4,0.63,1.8,302
7/2/2003,1:00,11.7,0.63,1.2,303
7/2/2003,2:00,11.3,0.63,0.7,300
7/2/2003,3:00,11.0,0.63,0.7,304
7/2/2003,4:00,10.8,0.63,0.3,280
7/2/2003,5:00,11.3,0.63,0.2,336